1511766000.68,20294,6.69,72966.3,-15.91,-16.59,-16.51,0,*69
1511766001.94,20295,6.69,72962.8,-15.89,-16.59,-16.51,0,*61
1511766003.2,20296,6.69,72964.5,-15.91,-16.51,-16.51,0,*63
1511766004.46,20297,6.69,72964.0,-15.89,-16.59,-16.51,0,*63
1511766005.69,20298,6.69,72960.3,-15.89,-16.59,-16.45,0,*69
1511766006.96,20299,6.69,72960.8,-15.89,-16.59,-16.51,0,*6D
1511766008.2,20300,6.69,72962.3,-15.91,-16.59,-16.51,0,*65
1511766009.44,20301,6.69,72958.3,-15.91,-16.59,-16.51,0,*64
1511766010.72,20302,6.69,72960.0,-15.89,-16.51,-16.51,0,*66
1511766012.0,20303,6.69,72956.8,-15.89,-16.51,-16.51,0,*67
1511766013.24,20304,6.69,72956.3,-15.89,-16.59,-16.45,0,*6D
1511766014.46,20305,6.69,72952.3,-15.91,-16.59,-16.59,0,*68
1511766015.7,20306,6.69,72954.5,-15.91,-16.59,-16.51,0,*63
1511766016.98,20307,6.69,72956.8,-15.89,-16.51,-16.51,0,*63
1511766018.22,20308,6.69,72960.0,-15.91,-16.59,-16.51,0,*6D
1511766019.49,20309,6.69,72956.5,-15.89,-16.59,-16.51,0,*65
1511766020.73,20310,6.69,72952.8,-15.89,-16.59,-16.59,0,*65
1511766021.97,20311,6.69,72956.0,-15.91,-16.65,-16.45,0,*6F
1511766023.23,20312,6.69,72954.3,-15.89,-16.51,-16.59,0,*6F
1511766024.52,20313,6.69,72956.5,-15.89,-16.51,-16.51,0,*66
1511766025.78,20314,6.69,72952.8,-15.89,-16.45,-16.51,0,*64
1511766027.04,20315,6.69,72958.0,-15.89,-16.59,-16.51,0,*68
1511766028.32,20316,6.69,72958.0,-15.89,-16.51,-16.51,0,*63
1511766029.57,20317,6.69,72956.0,-15.85,-16.55,-16.45,0,*6F
1511766030.83,20318,6.69,72956.5,-15.91,-16.65,-16.65,0,*64
1511766032.12,20319,6.69,72962.5,-15.89,-16.65,-16.65,0,*6C
1511766033.42,20320,6.69,72960.5,-15.89,-16.65,-16.65,0,*66
1511766034.69,20321,6.69,72964.0,-15.89,-16.65,-16.59,0,*68
1511766035.95,20322,6.69,72964.5,-15.89,-16.75,-16.65,0,*65
1511766037.22,20323,6.69,72960.8,-15.89,-16.65,-16.75,0,*64
1511766038.46,20324,6.69,72964.3,-15.89,-16.79,-16.75,0,*6E
1511766039.69,20325,6.69,72962.3,-15.91,-16.75,-16.75,0,*6A
1511766040.93,20326,6.69,72960.3,-15.89,-16.75,-16.79,0,*6C
1511766042.2,20327,6.69,72962.0,-15.89,-16.65,-16.79,0,*6C
1511766043.49,20328,6.69,72960.8,-15.85,-16.69,-16.69,0,*62
1511766044.73,20329,6.69,72966.0,-15.89,-16.79,-16.79,0,*6F
1511766045.98,20330,6.69,72962.8,-15.89,-16.79,-16.75,0,*6B
1511766047.22,20331,6.69,72966.8,-15.89,-16.79,-16.79,0,*66
1511766048.46,20332,6.69,72966.8,-15.89,-16.79,-16.79,0,*65
1511766049.7,20333,6.69,72966.8,-15.89,-16.79,-16.79,0,*64
1511766050.94,20334,6.69,72966.0,-15.89,-16.75,-16.79,0,*6F
1511766052.16,20335,6.69,72964.5,-15.91,-16.79,-16.79,0,*6B
1511766053.4,20336,6.69,72966.8,-15.89,-16.79,-16.75,0,*6D
1511766054.62,20337,6.69,72968.8,-15.91,-16.75,-16.79,0,*65
1511766055.87,20338,6.69,72964.8,-15.89,-16.75,-16.75,0,*6F
1511766057.11,20339,6.69,72962.0,-15.89,-16.79,-16.75,0,*62
1511766058.36,20340,6.69,72960.8,-15.89,-16.75,-16.75,0,*60
1511766059.62,20341,6.69,72962.8,-15.91,-16.65,-16.65,0,*68
1511766060.88,20342,6.69,72962.8,-15.91,-16.65,-16.59,0,*64
1511766062.15,20343,6.75,72966.8,-15.89,-16.65,-16.59,0,*6C
1511766063.44,20344,6.69,72966.0,-15.89,-16.65,-16.65,0,*64
1511766064.7,20345,6.75,72968.8,-15.89,-16.75,-16.65,0,*64
1511766065.97,20346,6.69,72966.0,-15.89,-16.65,-16.75,0,*67
1511766067.23,20347,6.69,72964.8,-15.89,-16.75,-16.65,0,*66
1511766068.5,20348,6.69,72962.5,-15.91,-16.65,-16.65,0,*61
1511766069.75,20349,6.69,72964.3,-15.89,-16.75,-16.75,0,*69
1511766071.01,20350,6.69,72964.3,-15.89,-16.75,-16.65,0,*60
1511766072.26,20351,6.69,72964.3,-15.89,-16.75,-16.59,0,*6E
1511766073.5,20352,6.69,72962.3,-15.91,-16.75,-16.65,0,*6B
1511766074.77,20353,6.69,72958.3,-15.89,-16.75,-16.65,0,*63
1511766076.02,20354,6.69,72960.0,-15.85,-16.59,-16.55,0,*65
1511766077.28,20355,6.69,72962.5,-15.89,-16.65,-16.59,0,*6B
1511766078.53,20356,6.69,72958.8,-15.89,-16.79,-16.59,0,*65
1511766079.77,20357,6.69,72956.8,-15.89,-16.75,-16.75,0,*66
1511766081.01,20358,6.69,72954.0,-15.89,-16.75,-16.79,0,*65
1511766082.28,20359,6.75,72956.5,-15.89,-16.75,-16.65,0,*69
1511766083.54,20360,6.69,72956.5,-15.89,-16.75,-16.65,0,*63
1511766084.79,20361,6.69,72954.0,-15.85,-16.59,-16.55,0,*63
1511766086.08,20362,6.69,72956.0,-15.89,-16.65,-16.65,0,*60
1511766087.33,20363,6.69,72956.8,-15.85,-16.59,-16.59,0,*6D
1511766088.6,20364,6.69,72956.3,-15.89,-16.75,-16.65,0,*67
1511766089.84,20365,6.69,72960.0,-15.89,-16.79,-16.75,0,*6B
1511766091.08,20366,6.69,72962.5,-15.89,-16.79,-16.79,0,*64
1511766092.32,20367,6.69,72960.0,-15.89,-16.79,-16.79,0,*65
1511766093.57,20368,6.69,72962.0,-15.89,-16.75,-16.75,0,*6A
1511766094.81,20369,6.69,72960.3,-15.89,-16.79,-16.75,0,*67
1511766096.08,20370,6.69,72960.0,-15.89,-16.75,-16.65,0,*62
1511766097.32,20371,6.75,72960.8,-15.89,-16.75,-16.75,0,*62
1511766098.6,20372,6.69,72958.0,-15.85,-16.69,-16.59,0,*6E
1511766099.87,20373,6.75,72960.5,-15.85,-16.69,-16.55,0,*63
1511766101.14,20374,6.75,72956.8,-15.85,-16.69,-16.59,0,*68
1511766102.39,20375,6.69,72956.5,-15.85,-16.75,-16.55,0,*68
1511766103.69,20376,6.69,72952.8,-15.85,-16.69,-16.69,0,*69
1511766104.96,20377,6.69,72956.0,-15.89,-16.65,-16.59,0,*6B
1511766106.23,20378,6.69,72952.5,-15.89,-16.65,-16.59,0,*64
1511766107.5,20379,6.75,72952.8,-15.89,-16.65,-16.59,0,*65
1511766108.75,20380,6.69,72952.3,-15.85,-16.59,-16.59,0,*60
1511766110.0,20381,6.75,72956.3,-15.85,-16.55,-16.59,0,*6D
1511766111.26,20382,6.69,72956.3,-15.85,-16.59,-16.59,0,*62
1511766112.51,20383,6.69,72954.3,-15.85,-16.59,-16.59,0,*63
1511766113.78,20384,6.69,72952.3,-15.85,-16.59,-16.69,0,*67
1511766115.03,20385,6.69,72952.5,-15.85,-16.59,-16.59,0,*65
1511766116.33,20386,6.69,72948.8,-15.85,-16.69,-16.69,0,*66
1511766117.58,20387,6.75,72954.3,-15.85,-16.75,-16.59,0,*69
1511766118.88,20388,6.75,72952.8,-15.85,-16.69,-16.69,0,*68
1511766120.15,20389,6.75,72954.8,-15.85,-16.75,-16.69,0,*64
1511766121.45,20390,6.75,72956.0,-15.85,-16.69,-16.69,0,*61
1511766122.74,20391,6.69,72952.3,-15.85,-16.69,-16.69,0,*60
1511766123.99,20392,6.69,72952.0,-15.85,-16.75,-16.75,0,*63
1511766125.27,20393,6.69,72950.5,-15.85,-16.69,-16.75,0,*6F
1511766126.52,20394,6.69,72952.3,-15.85,-16.75,-16.75,0,*65
1511766127.82,20395,6.75,72956.5,-15.85,-16.69,-16.69,0,*64
1511766129.11,20396,6.75,72956.3,-15.85,-16.69,-16.69,0,*67
1511766130.39,20397,6.75,72952.3,-15.85,-16.75,-16.69,0,*6B
1511766131.64,20398,6.75,72952.8,-15.85,-16.75,-16.75,0,*69
1511766132.91,20399,6.75,72952.0,-15.85,-16.75,-16.69,0,*65
1511766134.19,20400,6.69,72952.0,-15.85,-16.69,-16.75,0,*62
1511766135.46,20401,6.75,72952.3,-15.85,-16.75,-16.69,0,*63
1511766136.71,20402,6.69,72952.5,-15.85,-16.75,-16.75,0,*6D
1511766137.96,20403,6.75,72958.8,-15.85,-16.75,-16.75,0,*6C
1511766139.19,20404,6.69,72954.8,-15.83,-16.75,-16.75,0,*6D
1511766140.43,20405,6.69,72952.5,-15.85,-16.89,-16.79,0,*65
1511766141.69,20406,6.75,72956.5,-15.85,-16.75,-16.75,0,*69
1511766142.94,20407,6.69,72952.3,-15.85,-16.79,-16.75,0,*64
1511766144.19,20408,6.75,72958.3,-15.85,-16.79,-16.75,0,*6B
1511766145.44,20409,6.75,72956.0,-15.85,-16.79,-16.75,0,*6A
1511766146.69,20410,6.75,72958.8,-15.85,-16.89,-16.79,0,*61
1511766147.93,20411,6.75,72960.8,-15.85,-16.89,-16.79,0,*60
1511766149.18,20412,6.75,72960.3,-15.85,-16.89,-16.79,0,*63
1511766150.42,20413,6.75,72958.8,-15.85,-16.79,-16.89,0,*62
1511766151.67,20414,6.75,72958.0,-15.85,-16.79,-16.79,0,*6A
1511766152.92,20415,6.69,72952.0,-15.85,-16.79,-16.79,0,*6B
1511766154.17,20416,6.69,72954.5,-15.85,-16.79,-16.79,0,*68
1511766155.41,20417,6.75,72958.3,-15.85,-16.89,-16.79,0,*66
1511766156.64,20418,6.75,72958.0,-15.89,-16.93,-16.89,0,*61
1511766157.88,20419,6.69,72952.0,-15.85,-16.93,-16.79,0,*63
1511766159.12,20420,6.75,72958.5,-15.85,-16.93,-16.89,0,*66
1511766160.36,20421,6.75,72956.5,-15.85,-16.93,-16.89,0,*67
1511766161.6,20422,6.75,72956.3,-15.85,-16.93,-16.79,0,*6B
1511766162.83,20423,6.75,72956.5,-15.89,-16.97,-16.93,0,*66
1511766164.1,20424,6.75,72956.5,-15.89,-16.97,-17.07,0,*6D
1511766165.34,20425,6.75,72952.0,-15.89,-16.97,-16.93,0,*60
1511766166.55,20426,6.75,72956.0,-15.91,-16.97,-16.97,0,*6E
1511766167.79,20427,6.75,72954.8,-15.89,-16.83,-16.93,0,*67
1511766169.02,20428,6.75,72954.5,-15.89,-16.93,-16.93,0,*69
1511766170.29,20429,6.75,72958.5,-15.89,-16.97,-17.07,0,*60
1511766171.51,20430,6.75,72960.5,-15.89,-16.93,-16.93,0,*60
1511766172.74,20431,6.75,72962.0,-15.89,-16.93,-16.93,0,*61
1511766173.97,20432,6.75,72954.3,-15.89,-16.93,-16.93,0,*62
1511766175.18,20433,6.75,72956.0,-15.91,-16.97,-16.93,0,*6E
1511766176.44,20434,6.75,72954.5,-15.89,-17.07,-16.93,0,*68
1511766177.66,20435,6.75,72958.8,-15.91,-16.97,-16.93,0,*68
1511766178.87,20436,6.75,72956.8,-15.91,-16.97,-16.97,0,*6F
1511766180.11,20437,6.75,72958.0,-15.89,-16.97,-16.97,0,*67
1511766181.32,20438,6.75,72958.8,-15.91,-16.93,-16.97,0,*65
1511766182.55,20439,6.75,72962.5,-15.89,-16.93,-16.97,0,*6D
1511766183.79,20440,6.75,72958.8,-15.91,-17.07,-16.97,0,*66
1511766185.06,20441,6.75,72956.8,-15.89,-17.07,-16.97,0,*6E
1511766186.27,20442,6.75,72960.8,-15.91,-16.93,-16.97,0,*68
1511766187.48,20443,6.75,72958.8,-15.91,-16.97,-16.97,0,*6D
1511766188.72,20444,6.75,72952.8,-15.89,-16.93,-16.83,0,*62
1511766189.95,20445,6.75,72952.0,-15.89,-16.97,-16.93,0,*66
1511766191.19,20446,6.75,72952.0,-15.89,-16.97,-16.83,0,*64
1511766192.4,20447,6.75,72958.0,-15.91,-16.93,-16.93,0,*69
1511766193.64,20448,6.75,72956.0,-15.89,-16.83,-16.97,0,*6A
1511766194.88,20449,6.75,72958.0,-15.89,-16.83,-16.79,0,*6B
1511766196.1,20450,6.75,72956.8,-15.91,-16.79,-16.79,0,*6F
1511766197.32,20451,6.75,72950.8,-15.91,-16.75,-16.79,0,*62
1511766198.54,20452,6.75,72952.8,-15.91,-16.79,-16.79,0,*6D
1511766199.76,20453,6.75,72956.3,-15.91,-16.79,-16.79,0,*6C
1511766201.0,20454,6.75,72956.8,-15.89,-16.79,-16.75,0,*6E
1511766202.23,20455,6.75,72958.5,-15.91,-16.75,-16.75,0,*6A
1511766203.44,20456,6.75,72956.0,-15.91,-16.79,-16.79,0,*69
1511766204.69,20457,6.75,72958.3,-15.91,-16.79,-16.65,0,*65
1511766205.91,20458,6.75,72962.3,-15.91,-16.75,-16.79,0,*6B
1511766207.17,20459,6.75,72960.0,-15.89,-16.75,-16.65,0,*6E
1511766208.42,20460,6.75,72956.8,-15.89,-16.79,-16.75,0,*69
1511766209.63,20461,6.75,72962.8,-15.91,-16.79,-16.79,0,*6D
1511766210.86,20462,6.75,72960.8,-15.91,-16.75,-16.79,0,*62
1511766212.1,20463,6.75,72960.0,-15.89,-16.79,-16.79,0,*66
1511766213.32,20464,6.75,72962.3,-15.91,-16.75,-16.79,0,*64
1511766214.56,20465,6.75,72960.0,-15.89,-16.75,-16.79,0,*6C
1511766215.8,20466,6.75,72960.3,-15.89,-16.79,-16.75,0,*6F
1511766217.04,20467,6.75,72960.3,-15.89,-16.79,-16.75,0,*6E
1511766218.29,20468,6.75,72962.0,-15.89,-16.75,-16.79,0,*61
1511766219.5,20469,6.75,72958.0,-15.91,-16.79,-16.79,0,*65
1511766220.75,20470,6.75,72960.3,-15.89,-16.79,-16.83,0,*61
1511766221.99,20471,6.75,72960.0,-15.89,-16.79,-16.79,0,*65
1511766223.23,20472,6.75,72962.5,-15.89,-16.79,-16.79,0,*66
1511766224.47,20473,6.75,72962.3,-15.89,-16.79,-16.75,0,*6B
1511766225.71,20474,6.75,72966.8,-15.89,-16.79,-16.79,0,*60
1511766226.95,20475,6.75,72964.8,-15.89,-16.79,-16.79,0,*61
1511766228.19,20476,6.75,72964.3,-15.89,-16.79,-16.79,0,*62
1511766229.41,20477,6.75,72962.3,-15.91,-16.79,-16.79,0,*6A
1511766230.65,20478,6.75,72960.0,-15.89,-16.79,-16.79,0,*6C
1511766231.89,20479,6.75,72962.0,-15.89,-16.79,-16.79,0,*6D
1511766233.11,20480,6.75,72964.5,-15.91,-16.79,-16.83,0,*67
1511766234.35,20481,6.75,72966.5,-15.89,-16.79,-16.83,0,*6F
1511766235.59,20482,6.75,72966.0,-15.89,-16.83,-16.79,0,*6C
1511766236.81,20483,6.75,72962.8,-15.91,-16.83,-16.79,0,*64
1511766238.05,20484,6.75,72964.0,-15.89,-16.83,-16.79,0,*6A
1511766239.29,20485,6.75,72966.8,-15.89,-16.79,-16.79,0,*6E
1511766240.53,20486,6.75,72964.5,-15.89,-16.79,-16.79,0,*6D
1511766241.75,20487,6.75,72966.0,-15.91,-16.83,-16.79,0,*60
1511766242.99,20488,6.75,72964.3,-15.89,-16.83,-16.79,0,*66
1511766244.23,20489,6.75,72962.8,-15.89,-16.83,-16.79,0,*67
1511766245.47,20490,6.75,72964.8,-15.89,-16.83,-16.79,0,*6F
1511766246.69,20491,6.75,72964.5,-15.91,-16.83,-16.79,0,*67
1511766247.94,20492,6.75,72966.8,-15.85,-16.79,-16.79,0,*64
1511766249.18,20493,6.75,72964.0,-15.89,-16.93,-16.83,0,*68
1511766250.41,20494,6.75,72960.5,-15.89,-16.93,-16.83,0,*6F
1511766251.66,20495,6.75,72966.5,-15.85,-16.79,-16.79,0,*63
1511766252.89,20496,6.75,72960.3,-15.89,-16.93,-16.93,0,*6C
1511766254.1,20497,6.75,72956.8,-15.91,-16.93,-16.83,0,*65
1511766255.32,20498,6.75,72958.0,-15.91,-16.83,-16.83,0,*6B
1511766256.57,20499,6.75,72960.0,-15.89,-16.83,-16.83,0,*63
1511766257.81,20500,6.75,72962.0,-15.89,-16.83,-16.79,0,*67
1511766259.05,20501,6.75,72962.8,-15.89,-16.83,-16.79,0,*66
1511766260.27,20502,6.75,72966.5,-15.91,-16.83,-16.83,0,*69
1511766261.51,20503,6.75,72964.8,-15.89,-16.83,-16.83,0,*61
1511766262.75,20504,6.75,72960.3,-15.89,-16.79,-16.83,0,*63
1511766263.99,20505,6.75,72960.3,-15.89,-16.79,-16.83,0,*62
1511766265.23,20506,6.75,72962.0,-15.89,-16.83,-16.79,0,*61
1511766266.47,20507,6.75,72962.0,-15.89,-16.79,-16.79,0,*65
1511766267.71,20508,6.75,72962.8,-15.89,-16.83,-16.79,0,*6F
1511766268.95,20509,6.75,72964.0,-15.89,-16.83,-16.79,0,*6E
1511766270.19,20510,6.75,72962.8,-15.89,-16.79,-16.79,0,*63
1511766271.41,20511,6.75,72960.0,-15.91,-16.79,-16.75,0,*67
1511766272.65,20512,6.75,72960.3,-15.89,-16.79,-16.79,0,*61
1511766273.89,20513,6.75,72964.3,-15.89,-16.79,-16.79,0,*60
1511766275.11,20514,6.75,72960.5,-15.91,-16.79,-16.79,0,*6E
1511766276.36,20515,6.75,72960.5,-15.89,-16.79,-16.75,0,*6A
1511766277.6,20516,6.75,72962.8,-15.89,-16.75,-16.75,0,*65
1511766278.82,20517,6.75,72964.5,-15.91,-16.79,-16.79,0,*6D
1511766280.06,20518,6.75,72962.5,-15.89,-16.79,-16.79,0,*6B
1511766281.3,20519,6.75,72964.3,-15.89,-16.79,-16.79,0,*6A
1511766282.54,20520,6.75,72962.5,-15.89,-16.79,-16.79,0,*60
1511766283.78,20521,6.75,72960.5,-15.89,-16.83,-16.79,0,*64
1511766285.0,20522,6.75,72964.8,-15.91,-16.83,-16.79,0,*6E
1511766286.22,20523,6.75,72960.5,-15.91,-16.83,-16.79,0,*6F
1511766287.46,20524,6.75,72960.3,-15.89,-16.93,-16.79,0,*60
1511766288.7,20525,6.75,72962.5,-15.89,-16.83,-16.79,0,*60
1511766289.94,20526,6.75,72960.0,-15.89,-16.83,-16.79,0,*63
1511766291.18,20527,6.75,72960.5,-15.89,-16.79,-16.75,0,*6B
1511766292.42,20528,6.75,72966.8,-15.89,-16.79,-16.79,0,*68
1511766293.67,20529,6.75,72962.8,-15.89,-16.79,-16.75,0,*65
1511766294.91,20530,6.75,72962.0,-15.89,-16.79,-16.75,0,*6D
1511766296.15,20531,6.75,72964.3,-15.89,-16.75,-16.75,0,*60
1511766297.39,20532,6.75,72966.0,-15.89,-16.79,-16.79,0,*63
1511766298.63,20533,6.75,72962.3,-15.89,-16.79,-16.79,0,*62
1511766299.88,20534,6.75,72964.3,-15.89,-16.79,-16.75,0,*69
1511766301.12,20535,6.75,72960.3,-15.89,-16.79,-16.75,0,*68
1511766302.42,20536,6.75,72964.3,-15.85,-16.69,-16.69,0,*6B
1511766303.69,20537,6.75,72960.3,-15.85,-16.75,-16.69,0,*67
1511766304.94,20538,6.75,72960.8,-15.85,-16.75,-16.75,0,*65
1511766306.19,20539,6.75,72964.5,-15.85,-16.75,-16.75,0,*64
1511766307.47,20540,6.75,72960.3,-15.85,-16.75,-16.69,0,*67
1511766308.72,20541,6.75,72960.5,-15.85,-16.75,-16.75,0,*6B
1511766309.97,20542,6.75,72966.3,-15.85,-16.75,-16.75,0,*68
1511766311.22,20543,6.81,72970.5,-15.85,-16.75,-16.75,0,*69
1511766312.47,20544,6.75,72966.5,-15.85,-16.89,-16.75,0,*6D
1511766313.72,20545,6.75,72964.0,-15.85,-16.75,-16.79,0,*63
1511766315.0,20546,6.75,72960.3,-15.85,-16.69,-16.75,0,*61
1511766316.27,20547,6.75,72964.5,-15.85,-16.69,-16.59,0,*6E
1511766317.53,20548,6.75,72964.3,-15.85,-16.59,-16.59,0,*62
1511766318.78,20549,6.75,72962.5,-15.85,-16.55,-16.55,0,*63
1511766320.03,20550,6.75,72962.5,-15.85,-16.59,-16.55,0,*67
1511766321.28,20551,6.81,72964.5,-15.85,-16.55,-16.59,0,*66
1511766322.53,20552,6.75,72962.3,-15.85,-16.45,-16.55,0,*68
1511766323.77,20553,6.81,72964.3,-15.85,-16.45,-16.55,0,*69
1511766324.99,20554,6.75,72960.3,-15.83,-16.55,-16.55,0,*69
1511766326.24,20555,6.75,72960.8,-15.85,-16.55,-16.45,0,*6F
1511766327.45,20556,6.75,72960.8,-15.83,-16.55,-16.45,0,*6A
1511766328.7,20557,6.75,72960.0,-15.85,-16.55,-16.55,0,*6C
1511766329.92,20558,6.75,72962.0,-15.83,-16.45,-16.55,0,*64
1511766331.14,20559,6.75,72962.3,-15.83,-16.59,-16.55,0,*68
1511766332.35,20560,6.75,72962.3,-15.83,-16.55,-16.45,0,*6F
1511766333.56,20561,6.75,72960.8,-15.83,-16.45,-16.45,0,*6F
1511766334.81,20562,6.75,72962.0,-15.81,-16.41,-16.41,0,*6E
1511766336.03,20563,6.75,72962.0,-15.83,-16.55,-16.55,0,*6D
1511766337.29,20564,6.75,72960.5,-15.81,-16.55,-16.51,0,*6C
1511766338.56,20565,6.75,72960.0,-15.81,-16.55,-16.51,0,*6D
1511766339.83,20566,6.81,72966.0,-15.81,-16.51,-16.41,0,*6B
1511766341.07,20567,6.75,72960.5,-15.81,-16.55,-16.41,0,*6E
1511766342.33,20568,6.81,72966.3,-15.77,-16.51,-16.45,0,*68
1511766343.62,20569,6.81,72964.5,-15.77,-16.51,-16.51,0,*6C
1511766344.91,20570,6.81,72966.0,-15.81,-16.51,-16.51,0,*6D
1511766346.18,20571,6.81,72964.3,-15.81,-16.55,-16.51,0,*68
1511766347.42,20572,6.75,72962.8,-15.77,-16.45,-16.37,0,*63
1511766348.69,20573,6.81,72966.0,-15.81,-16.51,-16.55,0,*6A
1511766349.92,20574,6.75,72964.0,-15.75,-16.45,-16.51,0,*67
1511766351.19,20575,6.81,72962.0,-15.81,-16.55,-16.51,0,*6C
1511766352.43,20576,6.81,72964.0,-15.77,-16.45,-16.45,0,*62
1511766353.71,20577,6.81,72964.0,-15.81,-16.51,-16.51,0,*6A
1511766354.98,20578,6.81,72962.3,-15.81,-16.55,-16.51,0,*61
1511766356.22,20579,6.81,72964.8,-15.77,-16.45,-16.45,0,*6D
1511766357.49,20580,6.75,72960.3,-15.81,-16.65,-16.55,0,*61
1511766358.73,20581,6.75,72960.5,-15.75,-16.65,-16.45,0,*6A
1511766360.01,20582,6.81,72962.3,-15.77,-16.51,-16.51,0,*69
1511766361.3,20583,6.81,72960.5,-15.77,-16.51,-16.51,0,*68
1511766362.57,20584,6.81,72960.8,-15.81,-16.65,-16.55,0,*65
1511766363.83,20585,6.81,72962.3,-15.75,-16.51,-16.51,0,*6C
1511766365.04,20586,6.75,72962.8,-15.75,-16.59,-16.45,0,*62
1511766366.25,20587,6.81,72962.8,-15.75,-16.45,-16.45,0,*6E
1511766367.46,20588,6.81,72964.5,-15.75,-16.45,-16.45,0,*61
1511766368.67,20589,6.81,72964.5,-15.75,-16.59,-16.45,0,*6D
1511766369.91,20590,6.81,72964.5,-15.75,-16.51,-16.45,0,*6D
1511766371.14,20591,6.81,72964.3,-15.75,-16.51,-16.37,0,*69
1511766372.35,20592,6.81,72964.0,-15.75,-16.45,-16.45,0,*6A
1511766373.61,20593,6.81,72964.3,-15.75,-16.51,-16.51,0,*6B
1511766374.85,20594,6.81,72968.8,-15.75,-16.59,-16.51,0,*64
1511766376.11,20595,6.81,72966.3,-15.75,-16.65,-16.51,0,*6A
1511766377.35,20596,6.81,72964.8,-15.75,-16.51,-16.45,0,*6B
1511766378.64,20597,6.81,72964.0,-15.73,-16.51,-16.51,0,*69
1511766379.85,20598,6.81,72966.5,-15.75,-16.37,-16.45,0,*65
1511766381.08,20599,6.81,72966.5,-15.75,-16.51,-16.37,0,*61
1511766382.32,20600,6.81,72966.5,-15.73,-16.59,-16.45,0,*69
1511766383.57,20601,6.81,72960.5,-15.73,-16.59,-16.37,0,*6D
1511766384.81,20602,6.81,72962.5,-15.73,-16.37,-16.45,0,*63
1511766386.07,20603,6.81,72966.0,-15.75,-16.31,-16.31,0,*61
1511766387.33,20604,6.81,72960.8,-15.73,-16.37,-16.31,0,*66
1511766388.62,20605,6.81,72966.5,-15.73,-16.31,-16.31,0,*61
1511766389.89,20606,6.81,72968.3,-15.73,-16.31,-16.37,0,*64
1511766391.16,20607,6.81,72970.3,-15.71,-16.27,-16.17,0,*62
1511766392.42,20608,6.81,72970.5,-15.71,-16.31,-16.17,0,*6A
1511766393.69,20609,6.81,72966.3,-15.71,-16.31,-16.27,0,*68
1511766394.98,20610,6.81,72964.3,-15.69,-16.27,-16.31,0,*69
1511766396.28,20611,6.81,72964.3,-15.69,-16.17,-16.13,0,*6B
1511766397.55,20612,6.75,72966.8,-15.71,-16.17,-16.27,0,*66
1511766398.85,20613,6.81,72968.8,-15.69,-16.17,-16.17,0,*6D
1511766400.14,20614,6.81,72966.5,-15.69,-16.27,-16.27,0,*6A
1511766401.43,20615,6.81,72970.8,-15.69,-16.27,-16.27,0,*6B
1511766402.7,20616,6.81,72970.3,-15.67,-16.23,-16.27,0,*62
1511766403.97,20617,6.81,72970.8,-15.69,-16.41,-16.31,0,*6E
1511766405.24,20618,6.81,72968.5,-15.69,-16.41,-16.31,0,*61
1511766406.51,20619,6.81,72968.0,-15.71,-16.31,-16.31,0,*6E
1511766407.77,20620,6.81,72972.5,-15.67,-16.31,-16.27,0,*64
1511766409.04,20621,6.81,72966.3,-15.67,-16.23,-16.27,0,*66
1511766410.3,20622,6.81,72968.3,-15.67,-16.27,-16.23,0,*65
1511766411.59,20623,6.81,72964.0,-15.69,-16.31,-16.27,0,*69
1511766412.86,20624,6.81,72966.0,-15.67,-16.23,-16.23,0,*67
1511766414.12,20625,6.81,72960.5,-15.67,-16.27,-16.13,0,*61
1511766415.39,20626,6.81,72962.0,-15.67,-16.23,-16.23,0,*65
1511766416.66,20627,6.81,72962.8,-15.67,-16.27,-16.27,0,*64
1511766417.95,20628,6.81,72958.8,-15.65,-16.27,-16.23,0,*6D
1511766419.21,20629,6.81,72958.8,-15.67,-16.27,-16.27,0,*6A
1511766420.48,20630,6.81,72960.0,-15.67,-16.27,-16.27,0,*62
1511766421.72,20631,6.81,72964.8,-15.67,-16.27,-16.41,0,*63
1511766422.99,20632,6.81,72960.0,-15.67,-16.27,-16.27,0,*60
1511766424.2,20633,6.81,72960.0,-15.67,-16.37,-16.37,0,*61
1511766425.42,20634,6.81,72964.8,-15.67,-16.37,-16.41,0,*67
1511766426.64,20635,6.81,72960.5,-15.67,-16.37,-16.37,0,*67
1511766427.91,20636,6.81,72962.8,-15.65,-16.51,-16.41,0,*67
1511766429.16,20637,6.81,72960.0,-15.65,-16.41,-16.41,0,*67
1511766430.42,20638,6.81,72962.0,-15.67,-16.51,-16.51,0,*6A
1511766431.67,20639,6.81,72964.5,-15.65,-16.41,-16.41,0,*69
1511766432.96,20640,6.81,72962.5,-15.65,-16.51,-16.51,0,*67
1511766434.23,20641,6.81,72960.8,-15.65,-16.51,-16.41,0,*67
1511766435.5,20642,6.81,72962.5,-15.65,-16.51,-16.55,0,*61
1511766436.75,20643,6.81,72962.8,-15.65,-16.55,-16.55,0,*64
1511766438.0,20644,6.81,72966.3,-15.65,-16.55,-16.55,0,*63
1511766439.29,20645,6.81,72964.8,-15.65,-16.51,-16.51,0,*62
1511766440.55,20646,6.81,72960.8,-15.67,-16.51,-16.51,0,*63
1511766441.8,20647,6.81,72966.0,-15.65,-16.55,-16.55,0,*60
1511766443.05,20648,6.81,72964.5,-15.67,-16.55,-16.51,0,*69
1511766444.32,20649,6.81,72964.5,-15.65,-16.55,-16.51,0,*6A
1511766445.54,20650,6.81,72966.0,-15.67,-16.55,-16.55,0,*64
1511766446.79,20651,6.81,72962.5,-15.65,-16.55,-16.55,0,*67
1511766448.02,20652,6.81,72964.5,-15.63,-16.51,-16.45,0,*67
1511766449.25,20653,6.81,72962.5,-15.67,-16.55,-16.55,0,*67
1511766450.52,20654,6.81,72968.0,-15.65,-16.55,-16.51,0,*66
1511766451.79,20655,6.81,72966.0,-15.65,-16.55,-16.51,0,*67
1511766453.04,20656,6.81,72966.5,-15.65,-16.55,-16.55,0,*60
1511766454.29,20657,6.81,72964.8,-15.65,-16.55,-16.55,0,*61
1511766455.51,20658,6.81,72964.0,-15.67,-16.59,-16.55,0,*60
1511766456.73,20659,6.81,72964.3,-15.67,-16.59,-16.59,0,*6D
1511766457.98,20660,6.81,72964.8,-15.67,-16.69,-16.59,0,*64
1511766459.25,20661,6.81,72960.3,-15.65,-16.59,-16.69,0,*67
1511766460.47,20662,6.81,72960.3,-15.67,-16.59,-16.59,0,*65
1511766461.7,20663,6.81,72962.5,-15.67,-16.59,-16.59,0,*64
1511766462.95,20664,6.81,72962.3,-15.65,-16.59,-16.59,0,*61
1511766464.2,20665,6.81,72962.3,-15.67,-16.69,-16.59,0,*61
1511766465.42,20666,6.81,72962.5,-15.67,-16.59,-16.59,0,*61
1511766466.67,20667,6.81,72960.8,-15.67,-16.69,-16.59,0,*63
1511766467.89,20668,6.81,72964.8,-15.67,-16.59,-16.59,0,*6F
1511766469.12,20669,6.81,72962.8,-15.67,-16.59,-16.59,0,*6E
1511766470.34,20670,6.81,72964.0,-15.67,-16.59,-16.59,0,*66
1511766471.61,20671,6.81,72962.3,-15.65,-16.69,-16.55,0,*6A
1511766472.84,20672,6.81,72962.0,-15.67,-16.59,-16.59,0,*64
1511766474.08,20673,6.81,72962.8,-15.67,-16.69,-16.59,0,*66
1511766475.31,20674,6.81,72960.3,-15.67,-16.59,-16.59,0,*62
1511766476.53,20675,6.81,72962.8,-15.67,-16.59,-16.59,0,*63
1511766477.75,20676,6.81,72962.8,-15.67,-16.59,-16.59,0,*60
1511766478.98,20677,6.81,72970.8,-15.67,-16.59,-16.59,0,*61
1511766480.22,20678,6.81,72966.5,-15.67,-16.59,-16.69,0,*6D
1511766481.45,20679,6.81,72966.5,-15.67,-16.59,-16.59,0,*6F
1511766482.69,20680,6.81,72964.8,-15.67,-16.69,-16.59,0,*6A
1511766483.92,20681,6.81,72966.0,-15.67,-16.75,-16.59,0,*66
1511766485.17,20682,6.81,72962.8,-15.67,-16.69,-16.59,0,*68
1511766486.39,20683,6.81,72964.0,-15.67,-16.59,-16.59,0,*6A
1511766487.62,20684,6.81,72964.0,-15.67,-16.55,-16.59,0,*61
1511766488.87,20685,6.81,72964.8,-15.65,-16.55,-16.59,0,*62
1511766490.12,20686,6.81,72966.5,-15.65,-16.59,-16.59,0,*6D
1511766491.37,20687,6.81,72960.8,-15.65,-16.59,-16.59,0,*6C
1511766492.59,20688,6.81,72962.8,-15.67,-16.59,-16.55,0,*6D
1511766493.84,20689,6.81,72960.3,-15.65,-16.59,-16.55,0,*6E
1511766495.06,20690,6.81,72960.3,-15.67,-16.59,-16.55,0,*64
1511766496.28,20691,6.81,72962.0,-15.67,-16.55,-16.55,0,*69
1511766497.5,20692,6.81,72962.3,-15.63,-16.45,-16.45,0,*6E
1511766498.73,20693,6.81,72960.8,-15.63,-16.51,-16.45,0,*6A